Terminal Aerodrome Forecast
Issued by NWS Twin Cities, MN

Home | Current Version | Previous Version | Graphics & Text | Print | Product List | Glossary On
Versions: 1 2 3 4 5 6 7 8 9 10 11 12 13 14 15 16 17 18 19 20 21 22 23 24 25 26 27 28 29 30 31 32 33
000
FTUS43 KMPX 190300 AAA
TAFMSP
TAF AMD
KMSP 190306Z 1903/2006 18004KT P6SM OVC015
     FM190600 17005KT P6SM OVC017
     FM191000 14004KT P6SM OVC020
     FM191800 16006KT P6SM OVC035=

USA.gov is the U.S. government's official web portal to all federal, state and local government web resources and services.